SCP
0 0 0 0 0 0 0 -0 0 0 0 0 1 2 0 2 1 1 1 0 0 0
-0 -0 0 0 0 0 0 0 0 0 1 0 0 0 1 1 1 1 0 0 1 0
0 -0 -0 0 0 0 0 0 0 0 1 1 0 0 0 1 1 1 0 0 0 1
0 -0 -0 -0 -0 -0 0 0 -0 1 1 0 0 0 0 1 1 1 0 0 0 0
0 0 0 -0 -0 -0 0 0 0 1 1 0 0 0 0 0 2 1 1 0 0 0
0 0 0 -0 -0 -0 0 0 0 0 0 0 0 0 0 0 1 2 1 0 1 0
0 0 0 0 -0 0 0 0 0 0 0 0 0 0 0 0 0 1 2 1 1 1
0 0 0 0 -0 0 0 0 0 0 0 0 0 0 0 0 1 2 3 2 1 2
0 0 0 0 -0 0 0 0 0 0 0 0 0 0 0 0 0 3 2 2 2 1
0 0 0 0 -0 0 0 0 0 0 0 -0 0 0 0 0 0 0 0 1 1 1
0 0 0 0 0 0 0 0 0 0 0 0 0 0 0 0 0 0 0 0 1 1
0 0 0 0 0 0 0 0 0 0 0 0 0 0 0 0 0 0 0 0 0 1
0 0 0 0 0 0 0 0 0 0 0 0 0 0 0 0 0 0 0 0 0 0
0 0 0 0 0 0 0 0 0 0 0 0 0 0 0 0 0 0 0 -0 0 0
Wind_Speed_500mb
60 63 71 74 84 84 93 101 78 77 88 86 89 122 71 101 107 110 108 109 92 105
70 67 64 71 76 90 93 91 74 75 78 78 91 110 79 95 101 99 113 104 90 90
71 73 76 73 76 80 92 83 72 73 79 90 87 113 110 100 101 109 102 108 100 93
70 73 70 73 76 75 84 77 68 55 73 78 92 112 91 110 115 115 105 100 115 95
72 71 65 65 65 68 70 71 69 48 68 74 108 116 128 94 124 123 115 107 113 107
72 69 72 64 60 60 62 69 67 39 54 74 91 98 111 112 78 117 121 117 112 114
71 69 71 59 55 50 57 65 60 35 52 75 96 90 38 108 105 128 127 126 111 104
68 66 67 57 50 44 51 62 56 38 47 50 98 102 80 21 131 131 116 109 101 109
68 66 64 60 50 44 45 57 55 42 36 71 49 86 107 46 55 121 109 103 96 91
69 66 67 67 54 44 42 45 43 40 34 27 55 53 49 81 35 111 90 89 82 77
73 71 71 62 54 48 43 43 36 39 36 39 55 61 83 71 68 78 64 65 67 73
73 67 64 64 48 49 45 39 32 32 39 40 46 64 75 82 97 74 80 65 70 63
66 61 65 63 50 49 46 44 37 31 38 50 48 55 51 91 73 79 93 88 77 68
67 67 56 56 44 45 43 43 41 42 37 37 48 47 56 72 78 84 91 97 78 72
Wind_Direction_500mb
300 306 302 297 297 297 293 293 272 263 255 240 236 222 218 219 218 219 220 220 217 216
300 293 299 301 297 295 293 301 274 257 246 243 233 220 217 219 221 221 220 216 216 215
306 299 287 289 291 293 298 303 277 252 251 232 228 208 217 219 217 221 221 219 212 213
309 306 292 282 286 299 302 300 279 261 245 242 217 206 213 215 215 219 219 219 211 209
314 311 302 291 286 295 302 304 307 259 244 240 214 206 209 218 211 218 217 218 213 206
317 313 309 295 287 292 303 307 310 265 252 231 226 215 219 222 204 220 220 215 215 210
321 316 314 301 294 292 302 312 317 279 248 222 208 197 225 229 223 215 218 217 212 211
320 321 318 304 295 296 304 317 315 291 232 226 217 227 225 293 223 212 206 210 206 210
321 314 314 309 292 295 298 312 308 298 244 226 226 220 214 218 259 193 200 202 205 209
323 318 312 307 284 286 284 302 309 301 238 235 226 209 209 203 264 180 189 195 196 203
325 315 312 302 283 275 282 288 302 300 243 225 222 213 202 203 208 186 192 192 196 203
325 319 316 308 290 266 276 282 297 289 262 247 217 216 195 194 180 187 207 211 210 207
326 318 315 304 294 258 272 280 293 284 252 243 230 206 193 188 206 190 197 211 204 211
332 326 313 294 286 257 271 281 283 293 241 226 211 195 209 204 206 204 201 201 208 210
Wind_Speed_850mb
60 63 71 74 84 84 93 101 78 77 88 86 89 122 71 101 107 110 108 109 92 105
70 67 64 71 76 90 93 91 74 75 78 78 91 110 79 95 101 99 113 104 90 90
71 73 76 73 76 80 92 83 72 73 79 90 87 113 110 100 101 109 102 108 100 93
70 73 70 73 76 75 84 77 68 55 73 78 92 112 91 110 115 115 105 100 115 95
72 71 65 65 65 68 70 71 69 48 68 74 108 116 128 94 124 123 115 107 113 107
72 69 72 64 60 60 62 69 67 39 54 74 91 98 111 112 78 117 121 117 112 114
71 69 71 59 55 50 57 65 60 35 52 75 96 90 38 108 105 128 127 126 111 104
68 66 67 57 50 44 51 62 56 38 47 50 98 102 80 21 131 131 116 109 101 109
68 66 64 60 50 44 45 57 55 42 36 71 49 86 107 46 55 121 109 103 96 91
69 66 67 67 54 44 42 45 43 40 34 27 55 53 49 81 35 111 90 89 82 77
73 71 71 62 54 48 43 43 36 39 36 39 55 61 83 71 68 78 64 65 67 73
73 67 64 64 48 49 45 39 32 32 39 40 46 64 75 82 97 74 80 65 70 63
66 61 65 63 50 49 46 44 37 31 38 50 48 55 51 91 73 79 93 88 77 68
67 67 56 56 44 45 43 43 41 42 37 37 48 47 56 72 78 84 91 97 78 72
Wind_Direction_850mb
300 306 302 297 297 297 293 293 272 263 255 240 236 222 218 219 218 219 220 220 217 216
300 293 299 301 297 295 293 301 274 257 246 243 233 220 217 219 221 221 220 216 216 215
306 299 287 289 291 293 298 303 277 252 251 232 228 208 217 219 217 221 221 219 212 213
309 306 292 282 286 299 302 300 279 261 245 242 217 206 213 215 215 219 219 219 211 209
314 311 302 291 286 295 302 304 307 259 244 240 214 206 209 218 211 218 217 218 213 206
317 313 309 295 287 292 303 307 310 265 252 231 226 215 219 222 204 220 220 215 215 210
321 316 314 301 294 292 302 312 317 279 248 222 208 197 225 229 223 215 218 217 212 211
320 321 318 304 295 296 304 317 315 291 232 226 217 227 225 293 223 212 206 210 206 210
321 314 314 309 292 295 298 312 308 298 244 226 226 220 214 218 259 193 200 202 205 209
323 318 312 307 284 286 284 302 309 301 238 235 226 209 209 203 264 180 189 195 196 203
325 315 312 302 283 275 282 288 302 300 243 225 222 213 202 203 208 186 192 192 196 203
325 319 316 308 290 266 276 282 297 289 262 247 217 216 195 194 180 187 207 211 210 207
326 318 315 304 294 258 272 280 293 284 252 243 230 206 193 188 206 190 197 211 204 211
332 326 313 294 286 257 271 281 283 293 241 226 211 195 209 204 206 204 201 201 208 210